When you browse on this site, cookies collect data to enhance your experience and personalize the content and advertising you see.
Visit our Privacy Policy to learn more. By continuing to use the site, you agree to this use of cookies and data.
  • în România
  • Lista ţărilor
  • Pe 7 zile
  • Temperatura apei
  • Meteo pe hartă
  • Widget-uri
  • user-avatar
    Intrare

    Meteo pe oră la Erd

    Astăzi, 22 Octombrie, Marţi

    Timp Temperatura Precipitaţii Vânt Presiune Umiditate
    00:00 +19°C° 0 mm 1 m/s 755 mmHg 73%
    01:00 +18°C° 0 mm 1 m/s 756 mmHg 77%
    02:00 +18°C° 0 mm 1 m/s 755 mmHg 78%
    03:00 +18°C° 0 mm 1 m/s 755 mmHg 78%
    04:00 +16°C° 0 mm 1 m/s 755 mmHg 79%
    05:00 +16°C° 0 mm 1 m/s 756 mmHg 79%
    06:00 +16°C° 0 mm 1 m/s 756 mmHg 78%
    07:00 +16°C° 0 mm 1 m/s 757 mmHg 76%
    08:00 +19°C° 0 mm 1 m/s 757 mmHg 69%
    09:00 +21°C° 0 mm 1 m/s 757 mmHg 62%
    10:00 +22°C° 0 mm 1 m/s 757 mmHg 55%
    11:00 +24°C° 0 mm 2 m/s 757 mmHg 51%
    12:00 +25°C° 0 mm 2 m/s 757 mmHg 47%
    13:00 +26°C° 0 mm 2 m/s 756 mmHg 43%
    14:00 +26°C° 0 mm 2 m/s 756 mmHg 45%
    15:00 +25°C° 0 mm 1 m/s 756 mmHg 47%
    16:00 +25°C° 0 mm 1 m/s 756 mmHg 49%
    17:00 +24°C° 0 mm 1 m/s 756 mmHg 52%
    18:00 +22°C° 0 mm 1 m/s 756 mmHg 56%
    19:00 +19°C° 0 mm 0 m/s 756 mmHg 59%
    20:00 +21°C° 0 mm 1 m/s 756 mmHg 60%
    21:00 +20°C° 0 mm 1 m/s 756 mmHg 62%
    22:00 +20°C° 0 mm 1 m/s 756 mmHg 63%
    23:00 +19°C° 0 mm 1 m/s 756 mmHg 64%

    Mâine, 23 Octombrie, Miercuri

    Timp Temperatura Precipitaţii Vânt Presiune Umiditate
    00:00 +19°C° 0 mm 1 m/s 756 mmHg 64%
    01:00 +18°C° 0 mm 1 m/s 756 mmHg 65%
    02:00 +18°C° 0 mm 1 m/s 756 mmHg 66%
    03:00 +18°C° 0 mm 1 m/s 756 mmHg 68%
    04:00 +16°C° 0 mm 2 m/s 755 mmHg 69%
    05:00 +16°C° 0 mm 2 m/s 755 mmHg 70%
    06:00 +16°C° 0 mm 2 m/s 755 mmHg 70%
    07:00 +16°C° 0 mm 2 m/s 756 mmHg 71%
    08:00 +18°C° 0 mm 2 m/s 755 mmHg 64%
    09:00 +20°C° 0 mm 3 m/s 755 mmHg 57%
    10:00 +22°C° 0 mm 3 m/s 755 mmHg 49%
    11:00 +24°C° 0 mm 3 m/s 755 mmHg 44%
    12:00 +25°C° 0 mm 3 m/s 755 mmHg 40%
    13:00 +27°C° 0 mm 3 m/s 754 mmHg 35%
    14:00 +26°C° 0 mm 3 m/s 754 mmHg 36%
    15:00 +25°C° 0 mm 3 m/s 753 mmHg 38%
    16:00 +25°C° 0 mm 2 m/s 753 mmHg 39%
    17:00 +23°C° 0 mm 2 m/s 753 mmHg 43%
    18:00 +21°C° 0 mm 2 m/s 753 mmHg 47%
    19:00 +19°C° 0 mm 3 m/s 753 mmHg 50%
    20:00 +19°C° 0 mm 2 m/s 753 mmHg 53%
    21:00 +18°C° 0 mm 2 m/s 753 mmHg 56%
    22:00 +18°C° 0 mm 2 m/s 753 mmHg 58%
    23:00 +17°C° 0 mm 2 m/s 753 mmHg 60%

    Poimâine, 24 Octombrie, Joi

    Timp Temperatura Precipitaţii Vânt Presiune Umiditate
    00:00 +17°C° 0 mm 2 m/s 753 mmHg 62%
    01:00 +16°C° 0 mm 2 m/s 753 mmHg 63%
    02:00 +16°C° 0 mm 2 m/s 752 mmHg 64%
    03:00 +15°C° 0 mm 2 m/s 752 mmHg 64%
    04:00 +15°C° 0 mm 2 m/s 752 mmHg 64%
    05:00 +15°C° 0 mm 2 m/s 752 mmHg 64%
    06:00 +15°C° 0 mm 2 m/s 752 mmHg 63%
    07:00 +14°C° 0 mm 2 m/s 752 mmHg 62%
    08:00 +16°C° 0 mm 2 m/s 751 mmHg 56%
    09:00 +18°C° 0 mm 2 m/s 751 mmHg 50%
    10:00 +20°C° 0 mm 2 m/s 751 mmHg 44%
    11:00 +22°C° 0 mm 3 m/s 751 mmHg 40%
    12:00 +24°C° 0 mm 3 m/s 751 mmHg 36%
    13:00 +26°C° 0 mm 3 m/s 751 mmHg 33%
    14:00 +25°C° 0 mm 3 m/s 750 mmHg 34%
    15:00 +24°C° 0 mm 3 m/s 750 mmHg 36%
    16:00 +24°C° 0 mm 2 m/s 750 mmHg 38%
    17:00 +21°C° 0 mm 2 m/s 750 mmHg 41%
    18:00 +20°C° 0 mm 2 m/s 750 mmHg 44%
    19:00 +19°C° 0 mm 2 m/s 750 mmHg 47%
    20:00 +18°C° 0 mm 2 m/s 750 mmHg 49%
    21:00 +18°C° 0 mm 2 m/s 751 mmHg 51%
    22:00 +18°C° 0 mm 1 m/s 751 mmHg 53%
    23:00 +18°C° 0 mm 1 m/s 751 mmHg 55%

    25 Octombrie, Vineri

    Timp Temperatura Precipitaţii Vânt Presiune Umiditate
    00:00 +16°C° 0 mm 1 m/s 751 mmHg 56%
    01:00 +16°C° 0 mm 1 m/s 751 mmHg 58%
    02:00 +15°C° 0 mm 1 m/s 752 mmHg 59%
    03:00 +14°C° 0 mm 0 m/s 752 mmHg 60%
    04:00 +14°C° 0 mm 0 m/s 752 mmHg 61%
    05:00 +15°C° 0 mm 1 m/s 752 mmHg 63%
    06:00 +14°C° 0 mm 1 m/s 753 mmHg 65%
    07:00 +14°C° 0 mm 1 m/s 753 mmHg 66%
    08:00 +16°C° 0 mm 2 m/s 754 mmHg 62%
    09:00 +18°C° 0 mm 3 m/s 754 mmHg 58%
    10:00 +19°C° 0 mm 4 m/s 754 mmHg 54%
    11:00 +20°C° 0 mm 3 m/s 754 mmHg 51%
    12:00 +21°C° 0 mm 3 m/s 754 mmHg 48%
    13:00 +22°C° 0 mm 3 m/s 754 mmHg 46%
    14:00 +22°C° 0 mm 3 m/s 754 mmHg 48%
    15:00 +21°C° 0 mm 2 m/s 754 mmHg 51%
    16:00 +20°C° 0 mm 2 m/s 754 mmHg 53%
    17:00 +19°C° 0 mm 2 m/s 754 mmHg 58%
    18:00 +18°C° 0 mm 2 m/s 755 mmHg 62%
    19:00 +18°C° 0 mm 1 m/s 755 mmHg 67%
    20:00 +16°C° 0 mm 1 m/s 755 mmHg 69%
    21:00 +16°C° 0 mm 1 m/s 755 mmHg 70%
    22:00 +15°C° 0 mm 1 m/s 756 mmHg 72%
    23:00 +15°C° 0 mm 1 m/s 755 mmHg 73%

    26 Octombrie, Sâmbătă

    Timp Temperatura Precipitaţii Vânt Presiune Umiditate
    00:00 +15°C° 0 mm 1 m/s 755 mmHg 73%
    01:00 +14°C° 0 mm 1 m/s 755 mmHg 74%
    02:00 +14°C° 0 mm 1 m/s 755 mmHg 74%
    03:00 +14°C° 0 mm 1 m/s 755 mmHg 75%
    04:00 +13°C° 0 mm 1 m/s 755 mmHg 76%
    05:00 +13°C° 0 mm 1 m/s 755 mmHg 76%
    06:00 +13°C° 0 mm 1 m/s 755 mmHg 77%
    07:00 +12°C° 0 mm 0 m/s 755 mmHg 78%
    08:00 +15°C° 0 mm 1 m/s 755 mmHg 71%
    09:00 +16°C° 0 mm 1 m/s 755 mmHg 65%
    10:00 +19°C° 0 mm 1 m/s 756 mmHg 58%
    11:00 +20°C° 0 mm 1 m/s 755 mmHg 53%
    12:00 +21°C° 0 mm 2 m/s 755 mmHg 49%
    13:00 +23°C° 0 mm 2 m/s 754 mmHg 44%
    14:00 +23°C° 0 mm 2 m/s 754 mmHg 46%
    15:00 +21°C° 0 mm 2 m/s 753 mmHg 48%
    16:00 +21°C° 0 mm 1 m/s 753 mmHg 50%
    17:00 +20°C° 0 mm 1 m/s 753 mmHg 54%
    18:00 +19°C° 0 mm 1 m/s 753 mmHg 58%
    19:00 +18°C° 0 mm 1 m/s 753 mmHg 61%
    20:00 +18°C° 0 mm 1 m/s 754 mmHg 63%
    21:00 +16°C° 0 mm 1 m/s 754 mmHg 65%
    22:00 +16°C° 0 mm 1 m/s 754 mmHg 67%
    23:00 +15°C° 0 mm 1 m/s 754 mmHg 69%

    27 Octombrie, Duminică

    Timp Temperatura Precipitaţii Vânt Presiune Umiditate
    00:00 +15°C° 0 mm 1 m/s 754 mmHg 71%
    01:00 +15°C° 0 mm 1 m/s 753 mmHg 73%
    02:00 +14°C° 0 mm 1 m/s 753 mmHg 75%
    03:00 +14°C° 0 mm 1 m/s 753 mmHg 76%
    04:00 +14°C° 0 mm 1 m/s 753 mmHg 78%
    05:00 +14°C° 0 mm 2 m/s 754 mmHg 78%
    06:00 +14°C° 0 mm 2 m/s 754 mmHg 78%
    07:00 +14°C° 0 mm 2 m/s 754 mmHg 77%
    08:00 +14°C° 0 mm 3 m/s 754 mmHg 70%
    09:00 +17°C° 0 mm 4 m/s 755 mmHg 63%
    10:00 +19°C° 0 mm 4 m/s 755 mmHg 55%
    11:00 +19°C° 0 mm 5 m/s 755 mmHg 54%
    12:00 +20°C° 0 mm 5 m/s 755 mmHg 52%
    13:00 +20°C° 0 mm 5 m/s 755 mmHg 50%
    14:00 +19°C° 0 mm 5 m/s 755 mmHg 51%
    15:00 +17°C° 0 mm 5 m/s 755 mmHg 52%
    16:00 +16°C° 0 mm 5 m/s 755 mmHg 53%
    17:00 +15°C° 0 mm 4 m/s 755 mmHg 50%
    18:00 +14°C° 0 mm 4 m/s 756 mmHg 47%
    19:00 +13°C° 0 mm 3 m/s 756 mmHg 45%
    20:00 +13°C° 0 mm 3 m/s 756 mmHg 44%
    21:00 +12°C° 0 mm 3 m/s 756 mmHg 44%
    22:00 +12°C° 0 mm 3 m/s 757 mmHg 43%
    23:00 +11°C° 0 mm 3 m/s 757 mmHg 43%

    28 Octombrie, Luni

    Timp Temperatura Precipitaţii Vânt Presiune Umiditate
    00:00 +12°C° 0 mm 2 m/s 756 mmHg 43%
    01:00 +12°C° 0 mm 2 m/s 756 mmHg 43%
    02:00 +12°C° 0 mm 2 m/s 756 mmHg 42%
    03:00 +12°C° 0 mm 2 m/s 756 mmHg 42%
    04:00 +11°C° 0 mm 1 m/s 756 mmHg 42%
    05:00 +12°C° 0 mm 1 m/s 755 mmHg 42%
    06:00 +12°C° 0 mm 1 m/s 755 mmHg 42%
    07:00 +12°C° 0 mm 1 m/s 755 mmHg 43%
    08:00 +11°C° 0.3 mm 1 m/s 755 mmHg 51%
    09:00 +10°C° 0.3 mm 1 m/s 755 mmHg 60%
    10:00 +10°C° 0.3 mm 1 m/s 755 mmHg 69%
    11:00 +9°C° 0.5 mm 1 m/s 755 mmHg 73%
    12:00 +9°C° 0.5 mm 1 m/s 755 mmHg 77%
    13:00 +8°C° 0.5 mm 0 m/s 755 mmHg 81%
    14:00 +10°C° 0.1 mm 1 m/s 754 mmHg 81%
    15:00 +10°C° 0.1 mm 1 m/s 754 mmHg 81%
    16:00 +10°C° 0.1 mm 1 m/s 753 mmHg 81%
    17:00 +10°C° 0 mm 1 m/s 753 mmHg 81%
    18:00 +10°C° 0 mm 1 m/s 753 mmHg 82%
    19:00 +10°C° 0 mm 1 m/s 753 mmHg 82%
    20:00 +10°C° 0 mm 1 m/s 754 mmHg 81%
    21:00 +9°C° 0 mm 2 m/s 754 mmHg 81%
    22:00 +9°C° 0 mm 2 m/s 754 mmHg 80%
    23:00 +9°C° 0 mm 2 m/s 754 mmHg 80%
    Arată mai mult